Location: Drignac
(45.1667°N, 2.0333°E)
Time: 12:13:49
(UTC+00:00)

SL-8 Rocket - Pass Details

Date: 29 March 2020
Orbit: 957 x 991 km, 82.9° (Epoch: 02 June)

Event Time Altitude Azimuth Distance (km) Brightness Sun altitude
Rises 21:49:02 0° 350° (N) 3,696 7.8 -33.4°
Reaches altitude 10° 21:51:33 10° 350° (N) 2,748 7.0 -33.7°
Enters shadow 21:56:37 59° 336° (NNW) 1,131 4.4 -34.2°
